Location: Clyde
(45.1830°S, 169.3170°E)
Time: 16:50:52
(UTC+12:00)

Cosmos 2058 - Pass Details

Date: 14 May 2021
Orbit: 561 x 584 km, 82.5° (Epoch: 16 June)

Event Time Altitude Azimuth Distance (km) Brightness Sun altitude
Rises 17:54:57 0° 19° (NNE) 2,755 6.4 -5.7°
Reaches altitude 10° 17:57:18 10° 29° (NNE) 1,871 5.4 -6.1°
Maximum altitude 18:00:54 30° 90° (E) 1,057 3.8 -6.7°
Drops below altitude 10° 18:04:34 10° 151° (SSE) 1,907 5.1 -7.3°
Sets 18:06:58 0° 161° (SSE) 2,819 6.1 -7.7°
